Retour au catalogue

SL-8 DEB

ActifLEO
NORAD 21254·DEBRIS·🇷🇺 Russia

Lancé Feb 12, 1991 depuis Plesetsk Cosmodrome

Loading…

Prochains Passages (prochaines 24 heures)

TLE

FraisSource: Space-Track

Époque: Sep 14, 2026, 08:23 UTC

1 21254U 91009BM  26257.34932632 -.00000031  00000-0 -10467-3 0  9994
2 21254  73.8920  28.1640 0189238 357.9333  29.0893 12.39411787607287

Suivez SL-8 DEB en temps réel avec AllMySat

Download on the App Store